Starlink 34776

operational
NORAD ID: 65037 Int'l Des: 2025-161 Owner: SPXS Country: US Constellation: starlink
LEOCIRCULAR

Über Starlink 34776

Beschreibung wird geladen...

Live-Position

3D-Globus wird geladen...

Nächste Überflüge

Höhenverlauf

Altitude vs Time

uPlot chart will show altitude changes over time

Zweizeiliger Elementsatz

1 65037U 25161Y 26062.00135545 .00026275 00000-0 89577-3 0 9996
2 65037 53.1600 325.4246 0000926 103.1388 256.9716 15.30212947 33203
Epoch: 3. März 2026 • Age: 32 hours

Aktueller Status

Höhe 478.8 km
Geschwindigkeit 7.63 km/s
Subsatellitenpunkt 43.20°N, 87.07°E
Startdatum 30. Juli 2025
Alter 0.5 years
Typ internet

Technische Details

Klassifizierung Payload
Masse 575.00 kg
Trockenmasse 530.00 kg
Gesamtmasse 575.00 kg
Länge 0.30 m
Durchmesser 4.10 m
Spannweite 29.00 m
Form Box + pan
Hersteller SPXS
Bus-Typ Starlink V2MO
Phasenstatus In Orbit
Besitzer/Staat SPXS/US

Große Konstellationen

Loading constellations...